Retour au catalogue

STARLINK-11107

ActifCommunicationsVLEO
NORAD 59708·PAYLOAD·🇺🇸 United States

Lancé May 10, 2024 depuis Vandenberg Space Force Base

Loading…

Prochains Passages (prochaines 24 heures)

TLE

FraisSource: CelesTrak SupGP

Époque: Sep 15, 2026, 02:31 UTC

1 59708C 24088A   26258.10534722  .00068998  00000+0  56832-3 0  2582
2 59708  53.1567 112.2152 0000820  67.0473  34.0500 15.69676822    14

Suivez STARLINK-11107 en temps réel avec AllMySat

Download on the App Store